EW3349 Weather Reports


Display with metric or nautical units.
time (UTC)temp
F
wind
direction
speed
MPH
gust
MPH
rain 1hr
in
rain 24hr
in
rain mn
in
humidity
%
barometer
mb
20260508193426 58 147 1.0 8.0 0.00 0.04 0.03 42 1010.3
20260508190129 56 129 0.0 4.0 0.00 0.04 0.03 47 1010.6
20260508185152 56 358 1.0 6.0 0.00 0.04 0.03 48 1010.6
20260508184207 57 15 1.0 6.0 0.00 0.04 0.03 49 1010.7
20260508183206 56 207 1.0 5.0 0.00 0.04 0.03 48 1010.7
20260508182223 56 342 0.0 6.0 0.00 0.04 0.03 49 1010.7
20260508181225 56 359 1.0 6.0 0.00 0.04 0.03 51 1010.9
20260508180228 56 344 1.0 4.0 0.00 0.04 0.03 48 1010.9
20260508175235 55 171 1.0 5.0 0.00 0.04 0.03 54 1011.0
20260508174241 55 198 1.0 5.0 0.00 0.04 0.03 56 1011.1
20260508172126 53 359 3.0 6.0 0.00 0.04 0.03 55 1011.3
20260508171135 53 151 1.0 6.0 0.00 0.04 0.03 57 1011.4
20260508170101 52 129 1.0 5.0 0.00 0.04 0.03 63 1011.4
20260508165103 51 23 1.0 5.0 0.00 0.04 0.03 61 1011.6
20260508162944 49 319 1.0 4.0 0.00 0.04 0.03 65 1011.9
20260508162006 49 172 1.0 6.0 0.00 0.04 0.03 67 1011.9
20260508160936 48 196 1.0 6.0 0.00 0.04 0.03 71 1012.0
20260508155927 48 15 0.0 4.0 0.00 0.04 0.03 71 1012.0
20260508154947 48 356 0.0 2.0 0.00 0.04 0.03 72 1012.0
20260508151717 48 196 0.0 4.0 0.00 0.04 0.03 74 1011.9
20260508150659 48 193 1.0 5.0 0.00 0.04 0.03 75 1011.9
20260508145629 47 150 0.0 5.0 0.00 0.04 0.03 78 1011.7
20260508144600 45 188 0.0 3.0 0.00 0.04 0.03 80 1011.9
20260508143608 45 164 0.0 3.0 0.00 0.04 0.03 80 1012.0
20260508141446 44 93 0.0 4.0 0.00 0.04 0.03 86 1012.1
20260508140416 42 353 0.0 2.0 0.00 0.04 0.03 87 1012.0
20260508135344 42 340 0.0 0.0 0.00 0.04 0.03 88 1012.0
20260508134324 42 344 0.0 3.0 0.00 0.04 0.03 89 1012.0
20260508133317 42 326 0.0 2.0 0.00 0.04 0.03 90 1012.0
20260508132327 41 162 0.0 1.0 0.00 0.04 0.03 90 1012.0
20260508130211 40 13 0.0 0.0 0.04 0.04 0.03 89 1012.0
20260508125218 40 344 0.0 2.0 0.04 0.04 0.03 87 1012.1
20260508124155 41 336 1.0 4.0 0.00 0.03 0.02 86 1012.0
20260508123216 41 359 0.0 4.0 0.00 0.02 0.01 84 1011.8
20260508122222 41 325 0.0 0.0 0.00 0.02 0.01 87 1011.7
20260508121153 41 334 0.0 1.0 0.00 0.02 0.01 87 1011.5
20260508120135 41 223 0.0 0.0 0.00 0.02 0.01 91 1011.3
20260508115152 41 307 0.0 0.0 0.00 0.02 0.01 92 1011.0
20260508114148 41 165 0.0 0.0 0.00 0.02 0.01 93 1011.0
20260508113113 41 159 0.0 0.0 0.00 0.02 0.01 94 1010.8
20260508112114 40 159 0.0 0.0 0.00 0.02 0.01 94 1010.6
20260508111112 40 159 0.0 0.0 0.00 0.02 0.01 94 1010.5
20260508110113 40 159 0.0 0.0 0.00 0.02 0.01 94 1010.3
20260508105114 39 159 0.0 0.0 0.00 0.02 0.01 94 1010.3
20260508104055 39 159 0.0 0.0 0.00 0.02 0.01 94 1010.3
20260508100828 38 159 0.0 0.0 0.00 0.02 0.01 94 1010.5
20260508095817 38 159 0.0 0.0 0.00 0.02 0.01 94 1010.7
20260508094839 38 159 0.0 0.0 0.00 0.02 0.01 94 1010.6
20260508093807 38 159 0.0 0.0 0.00 0.02 0.01 94 1011.0
20260508092813 38 159 0.0 0.0 0.00 0.02 0.01 94 1010.9
20260508091802 37 159 0.0 0.0 0.00 0.02 0.01 94 1011.0
20260508084617 36 159 0.0 0.0 0.00 0.02 0.01 93 1011.0
20260508083636 36 159 0.0 0.0 0.00 0.02 0.01 93 1010.9
20260508082634 37 159 0.0 0.0 0.00 0.02 0.01 93 1010.7
20260508081639 37 159 0.0 0.0 0.00 0.02 0.01 93 1010.7
20260508080606 37 159 0.0 0.0 0.00 0.02 0.01 93 1010.7
20260508075614 37 159 0.0 0.0 0.00 0.02 0.01 93 1010.7
20260508074618 37 157 0.0 0.0 0.00 0.02 0.01 92 1010.7
20260508073639 37 157 0.0 0.0 0.00 0.01 0.00 92 1010.6
20260508072647 38 157 0.0 0.0 0.00 0.01 0.00 92 1010.6
20260508070606 38 157 0.0 0.0 0.00 0.01 0.00 91 1010.9
20260508065553 39 158 0.0 0.0 0.00 0.01 0.00 91 1010.7
20260508063438 40 174 0.0 0.0 0.00 0.01 0.00 90 1010.8
20260508062441 40 174 0.0 0.0 0.00 0.01 0.00 90 1010.9
20260508061450 41 347 0.0 0.0 0.00 0.01 0.00 90 1011.0
20260508060453 41 131 0.0 0.0 0.00 0.01 0.00 90 1011.2
20260508055454 42 135 0.0 0.0 0.00 0.01 0.00 90 1011.1
20260508054501 42 311 0.0 0.0 0.00 0.01 0.00 90 1011.2
20260508053436 42 136 0.0 0.0 0.00 0.01 0.00 90 1011.1
20260508052420 42 330 0.0 0.0 0.00 0.01 0.00 90 1011.2
20260508051357 42 330 0.0 0.0 0.00 0.01 0.00 90 1011.2
20260508050325 42 329 0.0 0.0 0.00 0.01 0.00 90 1011.0
20260508045255 42 329 0.0 0.0 0.00 0.01 0.00 89 1011.0
20260508043116 42 113 0.0 0.0 0.00 0.01 0.00 88 1011.0
20260508042112 42 113 0.0 0.0 0.00 0.01 0.00 87 1011.0
20260508041057 42 5 0.0 0.0 0.00 0.01 0.00 86 1011.0
20260508040039 43 349 0.0 2.0 0.00 0.01 0.00 83 1010.9
20260508035058 44 346 0.0 0.0 0.00 0.00 0.00 80 1010.9
20260508034039 44 332 0.0 1.0 0.00 0.00 0.00 78 1010.8
20260508031945 44 338 0.0 0.0 0.00 0.00 0.00 76 1010.7
20260508030953 44 354 0.0 2.0 0.00 0.00 0.00 75 1010.7
20260508025932 44 351 0.0 0.0 0.00 0.00 0.00 75 1010.8
20260508024858 43 326 0.0 1.0 0.00 0.00 0.00 74 1010.9
20260508023922 43 347 0.0 0.0 0.00 0.00 0.00 73 1010.7
20260508021744 43 344 0.0 0.0 0.00 0.00 0.00 70 1010.7
20260508020715 44 6 0.0 0.0 0.00 0.00 0.00 69 1010.3
20260508015714 44 6 0.0 0.0 0.00 0.00 0.00 68 1010.4
20260508013626 43 4 0.0 0.0 0.00 0.00 0.00 67 1010.0
20260508012608 44 4 0.0 0.0 0.00 0.00 0.00 66 1010.0
20260508011552 45 4 0.0 0.0 0.00 0.00 0.00 64 1009.9
20260508010557 45 4 0.0 0.0 0.00 0.00 0.00 63 1010.0
20260508005530 45 4 0.0 0.0 0.00 0.00 0.00 62 1009.8
20260508004503 45 4 0.0 0.0 0.00 0.00 0.00 65 1009.7
20260508003436 46 4 0.0 0.0 0.00 0.00 0.00 61 1009.6
20260508001259 46 4 0.0 0.0 0.00 0.00 0.00 62 1009.5
20260507235040 47 4 0.0 0.0 0.00 0.00 0.00 58 1009.4
20260507234011 48 18 0.0 0.0 0.00 0.00 0.00 58 1009.4
20260507233015 48 40 0.0 0.0 0.00 0.00 0.00 56 1009.4
20260507231945 49 349 0.0 1.0 0.00 0.00 0.00 56 1009.4
20260507224735 50 0 0.0 1.0 0.00 0.00 0.00 56 1009.3
20260507223701 50 333 0.0 1.0 0.00 0.00 0.00 55 1009.3
20260507222643 51 352 0.0 0.0 0.00 0.00 0.00 53 1009.3
20260507221622 51 334 0.0 2.0 0.00 0.00 0.00 51 1009.4
20260507214344 55 359 0.0 4.0 0.00 0.00 0.00 51 1009.3
20260507213336 55 341 0.0 4.0 0.00 0.00 0.00 52 1009.3
20260507212314 54 350 0.0 4.0 0.00 0.00 0.00 50 1009.2
20260507211252 55 12 0.0 4.0 0.00 0.00 0.00 50 1009.3
20260507210245 53 124 0.0 4.0 0.00 0.00 0.00 53 1009.3
20260507205220 53 344 0.0 4.0 0.00 0.00 0.00 52 1009.4
20260507204208 53 331 0.0 0.0 0.00 0.00 0.00 56 1009.3
20260507203203 54 344 0.0 4.0 0.00 0.00 0.00 53 1009.3
20260507202156 56 63 1.0 4.0 0.00 0.00 0.00 50 1009.4
20260507201151 55 98 0.0 3.0 0.00 0.00 0.00 53 1009.4
20260507200152 54 40 0.0 4.0 0.00 0.00 0.00 52 1009.5
20260507195128 54 15 0.0 4.0 0.00 0.00 0.00 54 1009.6
20260507194105 52 15 0.0 3.0 0.00 0.00 0.00 57 1009.6